�������l�o���
Date,Time,MP-1(��Sv/h),MP-2(��Sv/h),MP-3(��Sv/h),MP-4(��Sv/h),MP-5(��Sv/h),MP-6(��Sv/h),MP-7(��Sv/h),MP-8(��Sv/h),����,����(m/s),���J
2024/02/14,00:00,0.510,0.771,0.485,0.969,0.697,0.310,0.556,0.520,���k��,3.9,��
2024/02/14,00:10,0.509,0.772,0.486,0.969,0.695,0.311,0.555,0.521,��,4.7,��
2024/02/14,00:20,0.511,0.772,0.485,0.968,0.696,0.311,0.556,0.521,��,4.5,��
2024/02/14,00:30,0.509,0.772,0.485,0.968,0.698,0.312,0.557,0.522,��,4.2,��
2024/02/14,00:40,0.510,0.772,0.485,0.969,0.696,0.312,0.557,0.520,��,4.1,��
2024/02/14,00:50,0.513,0.773,0.484,0.969,0.695,0.311,0.557,0.521,��,5.4,��
2024/02/14,01:00,0.510,0.773,0.484,0.968,0.697,0.311,0.555,0.521,���k��,6.3,��
2024/02/14,01:10,0.511,0.772,0.483,0.969,0.697,0.311,0.556,0.520,���k��,5.3,��
2024/02/14,01:20,0.511,0.771,0.485,0.969,0.696,0.312,0.556,0.520,���k��,4.6,��
2024/02/14,01:30,0.511,0.772,0.484,0.966,0.695,0.312,0.555,0.520,���k��,4.2,��
2024/02/14,01:40,0.511,0.774,0.486,0.969,0.698,0.309,0.555,0.520,���k��,4.1,��
2024/02/14,01:50,0.511,0.773,0.484,0.969,0.696,0.310,0.555,0.520,���k��,4.7,��
2024/02/14,02:00,0.512,0.774,0.485,0.969,0.697,0.310,0.556,0.519,���k��,5.2,��
2024/02/14,02:10,0.511,0.773,0.484,0.968,0.696,0.312,0.554,0.521,���k��,6.5,��
2024/02/14,02:20,0.511,0.772,0.485,0.968,0.696,0.310,0.555,0.520,���k��,6.7,��
2024/02/14,02:30,0.510,0.774,0.485,0.968,0.697,0.311,0.556,0.520,���k��,8.4,��
2024/02/14,02:40,0.509,0.773,0.485,0.970,0.696,0.311,0.555,0.519,���k��,6.4,��
2024/02/14,02:50,0.511,0.774,0.485,0.968,0.694,0.311,0.555,0.523,���k��,6.1,��
2024/02/14,03:00,0.509,0.772,0.485,0.968,0.695,0.311,0.555,0.519,���k��,6.5,��
2024/02/14,03:10,0.509,0.772,0.486,0.968,0.697,0.311,0.555,0.521,���k��,5.1,��
2024/02/14,03:20,0.511,0.775,0.483,0.967,0.696,0.312,0.555,0.520,���k��,4.6,��
2024/02/14,03:30,0.510,0.774,0.485,0.970,0.696,0.311,0.555,0.521,���k��,4.6,��
2024/02/14,03:40,0.509,0.773,0.485,0.966,0.697,0.312,0.557,0.520,���k��,3.9,��
2024/02/14,03:50,0.510,0.772,0.484,0.967,0.698,0.310,0.554,0.521,���k��,5.2,��
2024/02/14,04:00,0.508,0.773,0.485,0.968,0.698,0.312,0.555,0.520,���k��,4.3,��
2024/02/14,04:10,0.510,0.771,0.483,0.968,0.697,0.313,0.557,0.519,��,4.5,��
2024/02/14,04:20,0.510,0.773,0.485,0.969,0.694,0.310,0.555,0.520,��,2.3,��
2024/02/14,04:30,0.510,0.773,0.485,0.970,0.697,0.312,0.557,0.520,���쐼,1.8,��
2024/02/14,04:40,0.510,0.772,0.486,0.968,0.697,0.311,0.555,0.520,��쐼,1.4,��
2024/02/14,04:50,0.512,0.772,0.484,0.968,0.694,0.311,0.556,0.522,��쐼,1.5,��
2024/02/14,05:00,0.510,0.772,0.485,0.969,0.697,0.311,0.556,0.520,��쓌,1.8,��
2024/02/14,05:10,0.511,0.773,0.485,0.968,0.697,0.311,0.554,0.522,��,1.7,��
2024/02/14,05:20,0.510,0.774,0.485,0.969,0.698,0.312,0.555,0.520,���쐼,0.6,��
2024/02/14,05:30,0.510,0.774,0.485,0.968,0.696,0.312,0.555,0.521,���쐼,1.2,��
2024/02/14,05:40,0.512,0.774,0.485,0.969,0.697,0.311,0.555,0.520,���k��,0.8,��
2024/02/14,05:50,0.511,0.774,0.485,0.967,0.696,0.312,0.555,0.522,���k��,0.9,��
2024/02/14,06:00,0.510,0.773,0.486,0.970,0.696,0.310,0.556,0.520,��,0.8,��
2024/02/14,06:10,0.510,0.773,0.487,0.970,0.696,0.311,0.555,0.520,���쐼,2.3,��
2024/02/14,06:20,0.511,0.772,0.483,0.968,0.696,0.311,0.555,0.522,��,1.5,��
2024/02/14,06:30,0.511,0.773,0.484,0.969,0.697,0.312,0.557,0.521,���k��,1.2,��
2024/02/14,06:40,0.510,0.771,0.486,0.969,0.694,0.311,0.555,0.520,�k��,1.2,��
2024/02/14,06:50,0.510,0.772,0.484,0.967,0.696,0.312,0.556,0.521,�k��,0.6,��
2024/02/14,07:00,0.510,0.773,0.485,0.970,0.697,0.311,0.556,0.521,�k�k��,0.9,��
2024/02/14,07:10,0.509,0.773,0.484,0.970,0.696,0.312,0.556,0.522,���k��,2.5,��
2024/02/14,07:20,0.511,0.773,0.486,0.968,0.698,0.311,0.555,0.521,��,2.3,��
2024/02/14,07:30,0.510,0.775,0.485,0.969,0.695,0.312,0.557,0.520,��,5.3,��
2024/02/14,07:40,0.510,0.773,0.486,0.970,0.697,0.313,0.557,0.522,��,6.1,��
2024/02/14,07:50,0.510,0.773,0.486,0.969,0.695,0.312,0.558,0.520,��,4.5,��
2024/02/14,08:00,0.511,0.773,0.486,0.969,0.696,0.311,0.558,0.522,��,4.6,��
2024/02/14,08:10,0.511,0.773,0.489,0.971,0.696,0.311,0.558,0.521,���쐼,5.5,��
2024/02/14,08:20,0.511,0.773,0.488,0.970,0.695,0.312,0.557,0.521,���쐼,5.2,��
2024/02/14,08:30,0.512,0.776,0.486,0.968,0.696,0.312,0.557,0.522,��,6.0,��
2024/02/14,08:40,0.511,0.774,0.487,0.971,0.695,0.312,0.558,0.524,���쐼,7.1,��
2024/02/14,08:50,0.511,0.774,0.487,0.971,0.696,0.312,0.557,0.521,��,7.0,��
2024/02/14,09:00,0.511,0.774,0.489,0.971,0.698,0.313,0.557,0.524,��,7.2,��
2024/02/14,09:10,0.510,0.773,0.488,0.971,0.695,0.312,0.557,0.522,��,6.4,��
2024/02/14,09:20,0.514,0.770,0.488,0.971,0.696,0.312,0.557,0.522,��,7.2,��
2024/02/14,09:30,0.511,0.772,0.487,0.970,0.696,0.312,0.557,0.522,��,7.7,��
2024/02/14,09:40,0.510,0.770,0.487,0.971,0.697,0.312,0.557,0.522,��,8.1,��
2024/02/14,09:50,0.510,0.772,0.488,0.971,0.698,0.314,0.556,0.523,��,8.4,��
2024/02/14,10:00,0.510,0.772,0.489,0.970,0.697,0.313,0.558,0.524,��,7.0,��
2024/02/14,10:10,0.509,0.774,0.488,0.969,0.698,0.313,0.556,0.524,��,8.4,��
2024/02/14,10:20,0.510,0.772,0.489,0.969,0.698,0.311,0.557,0.525,��,5.5,��
2024/02/14,10:30,0.510,0.771,0.486,0.972,0.697,0.311,0.557,0.524,��,7.0,��
2024/02/14,10:40,0.510,0.772,0.488,0.971,0.697,0.311,0.558,0.523,��,7.2,��
2024/02/14,10:50,0.511,0.773,0.487,0.972,0.698,0.311,0.556,0.523,��,6.9,��
2024/02/14,11:00,0.510,0.773,0.488,0.971,0.696,0.310,0.558,0.524,��,7.2,��
2024/02/14,11:10,0.511,0.774,0.489,0.972,0.697,0.311,0.558,0.524,��,7.6,��
2024/02/14,11:20,0.511,0.772,0.488,0.974,0.697,0.310,0.557,0.523,��,6.5,��
2024/02/14,11:30,0.510,0.774,0.488,0.971,0.695,0.312,0.558,0.523,��,7.7,��
2024/02/14,11:40,0.510,0.772,0.488,0.972,0.698,0.311,0.558,0.524,��,8.3,��
2024/02/14,11:50,0.510,0.773,0.488,0.971,0.697,0.311,0.559,0.525,��,8.9,��
2024/02/14,12:00,0.512,0.774,0.488,0.975,0.697,0.312,0.559,0.524,��,9.0,��
2024/02/14,12:10,0.512,0.774,0.489,0.974,0.699,0.311,0.558,0.524,��,8.0,��
2024/02/14,12:20,0.512,0.771,0.487,0.974,0.696,0.310,0.559,0.525,��,8.6,��
2024/02/14,12:30,0.513,0.774,0.487,0.974,0.698,0.312,0.557,0.524,��,8.8,��
2024/02/14,12:40,0.513,0.774,0.488,0.974,0.699,0.312,0.557,0.524,���쐼,8.7,��
2024/02/14,12:50,0.513,0.773,0.488,0.974,0.697,0.314,0.560,0.523,��,8.0,��
2024/02/14,13:00,0.511,0.776,0.489,0.973,0.698,0.312,0.558,0.522,��,7.7,��
2024/02/14,13:10,0.512,0.777,0.488,0.975,0.699,0.314,0.558,0.523,���쐼,6.0,��
2024/02/14,13:20,0.512,0.773,0.487,0.974,0.698,0.314,0.559,0.525,���쐼,6.3,��
2024/02/14,13:30,0.513,0.775,0.490,0.980,0.699,0.313,0.557,0.525,���쐼,5.7,��
2024/02/14,13:40,0.513,0.773,0.487,0.975,0.698,0.313,0.558,0.525,���쐼,6.5,��
2024/02/14,13:50,0.511,0.775,0.490,0.973,0.697,0.313,0.558,0.523,��,7.1,��
2024/02/14,14:00,0.513,0.776,0.487,0.974,0.695,0.313,0.558,0.524,��,4.2,��
2024/02/14,14:10,0.512,0.774,0.489,0.976,0.689,0.313,0.559,0.524,��,3.8,��
2024/02/14,14:20,0.513,0.775,0.488,0.976,0.689,0.312,0.558,0.524,���쐼,6.1,��
2024/02/14,14:30,0.512,0.775,0.490,0.975,0.692,0.313,0.559,0.526,��,4.9,��
2024/02/14,14:40,0.513,0.776,0.488,0.977,0.697,0.311,0.559,0.526,���쐼,6.4,��
2024/02/14,14:50,0.513,0.772,0.489,0.974,0.699,0.312,0.558,0.524,��,7.0,��
2024/02/14,15:00,0.512,0.774,0.489,0.972,0.701,0.313,0.558,0.523,��,7.1,��
2024/02/14,15:10,0.512,0.776,0.487,0.975,0.700,0.312,0.558,0.524,���쐼,6.2,��
2024/02/14,15:20,0.511,0.774,0.488,0.973,0.698,0.312,0.558,0.523,��,7.4,��
2024/02/14,15:30,0.512,0.775,0.489,0.972,0.700,0.311,0.556,0.524,��,8.3,��
2024/02/14,15:40,0.513,0.774,0.488,0.971,0.700,0.313,0.557,0.524,��,7.8,��
2024/02/14,15:50,0.511,0.773,0.488,0.970,0.700,0.312,0.557,0.525,��,5.5,��
2024/02/14,16:00,0.512,0.774,0.489,0.971,0.699,0.312,0.557,0.525,���쐼,6.8,��
2024/02/14,16:10,0.511,0.775,0.489,0.969,0.700,0.312,0.559,0.522,��,5.1,��
2024/02/14,16:20,0.511,0.775,0.487,0.972,0.698,0.313,0.558,0.525,���쐼,5.7,��
2024/02/14,16:30,0.511,0.776,0.488,0.972,0.699,0.314,0.556,0.525,��,5.9,��
2024/02/14,16:40,0.513,0.774,0.488,0.970,0.700,0.313,0.558,0.524,���쐼,4.4,��
2024/02/14,16:50,0.510,0.776,0.485,0.972,0.699,0.314,0.558,0.525,��,3.1,��
2024/02/14,17:00,0.512,0.775,0.488,0.975,0.700,0.314,0.557,0.526,��,2.6,��
2024/02/14,17:10,0.510,0.778,0.488,0.975,0.698,0.314,0.558,0.527,���쐼,3.9,��
2024/02/14,17:20,0.512,0.778,0.488,0.973,0.698,0.314,0.557,0.526,���쐼,4.3,��
2024/02/14,17:30,0.511,0.778,0.490,0.976,0.700,0.313,0.559,0.525,���쐼,5.1,��
2024/02/14,17:40,0.513,0.777,0.489,0.975,0.699,0.315,0.557,0.527,���쐼,4.9,��
2024/02/14,17:50,0.513,0.776,0.488,0.975,0.703,0.315,0.558,0.526,��,6.9,��
2024/02/14,18:00,0.513,0.776,0.489,0.973,0.702,0.315,0.559,0.524,��,4.9,��
2024/02/14,18:10,0.516,0.776,0.491,0.975,0.700,0.315,0.558,0.525,�쐼,5.1,��
2024/02/14,18:20,0.513,0.778,0.489,0.974,0.703,0.314,0.557,0.525,���쐼,5.2,��
2024/02/14,18:30,0.512,0.777,0.490,0.973,0.702,0.314,0.559,0.525,���쐼,5.1,��
2024/02/14,18:40,0.513,0.778,0.488,0.976,0.701,0.314,0.559,0.525,��,4.9,��
2024/02/14,18:50,0.513,0.779,0.489,0.976,0.702,0.313,0.559,0.526,��,6.8,��
2024/02/14,19:00,0.513,0.778,0.489,0.975,0.702,0.314,0.559,0.525,��,7.3,��
2024/02/14,19:10,0.514,0.777,0.491,0.975,0.703,0.314,0.559,0.526,��,5.0,��
2024/02/14,19:20,0.512,0.778,0.489,0.975,0.702,0.313,0.558,0.524,��쐼,1.5,��
2024/02/14,19:30,0.513,0.778,0.489,0.976,0.701,0.314,0.558,0.524,���쐼,1.2,��
2024/02/14,19:40,0.512,0.777,0.490,0.977,0.702,0.314,0.558,0.525,���쐼,4.0,��
2024/02/14,19:50,0.514,0.778,0.489,0.976,0.699,0.314,0.559,0.524,��,5.4,��
2024/02/14,20:00,0.515,0.780,0.489,0.974,0.703,0.314,0.559,0.525,��,4.5,��
2024/02/14,20:10,0.514,0.778,0.490,0.975,0.701,0.313,0.560,0.524,���쐼,4.9,��
2024/02/14,20:20,0.513,0.779,0.489,0.974,0.704,0.314,0.558,0.523,��,6.1,��
2024/02/14,20:30,0.513,0.779,0.491,0.975,0.702,0.314,0.560,0.525,��,5.2,��
2024/02/14,20:40,0.513,0.777,0.488,0.976,0.702,0.315,0.559,0.524,��,5.0,��
2024/02/14,20:50,0.513,0.777,0.490,0.977,0.701,0.313,0.558,0.524,��,5.9,��
2024/02/14,21:00,0.515,0.779,0.490,0.976,0.704,0.314,0.558,0.524,��,5.6,��
2024/02/14,21:10,0.513,0.775,0.490,0.977,0.701,0.314,0.559,0.523,��,7.7,��
2024/02/14,21:20,0.513,0.778,0.489,0.975,0.701,0.313,0.559,0.524,��,8.1,��
2024/02/14,21:30,0.515,0.780,0.489,0.977,0.701,0.314,0.558,0.523,��,8.3,��
2024/02/14,21:40,0.514,0.779,0.489,0.974,0.704,0.313,0.559,0.524,���k��,7.8,��
2024/02/14,21:50,0.514,0.778,0.489,0.974,0.703,0.313,0.556,0.523,���k��,8.5,��
2024/02/14,22:00,0.512,0.778,0.489,0.975,0.702,0.313,0.558,0.524,��,8.5,��
2024/02/14,22:10,0.513,0.777,0.491,0.975,0.701,0.313,0.558,0.523,��,6.3,��
2024/02/14,22:20,0.513,0.779,0.490,0.975,0.701,0.314,0.558,0.524,��,5.6,��
2024/02/14,22:30,0.513,0.777,0.490,0.977,0.703,0.313,0.558,0.523,��,4.6,��
2024/02/14,22:40,0.513,0.779,0.491,0.976,0.702,0.314,0.558,0.523,��,3.3,��
2024/02/14,22:50,0.514,0.778,0.488,0.976,0.701,0.312,0.558,0.523,��,0.6,��
2024/02/14,23:00,0.512,0.777,0.489,0.977,0.702,0.314,0.558,0.524,���쓌,2.0,��
2024/02/14,23:10,0.514,0.779,0.490,0.977,0.702,0.315,0.559,0.524,�k�k��,1.2,��
2024/02/14,23:20,0.512,0.776,0.490,0.977,0.700,0.314,0.559,0.524,�k��,1.7,��
2024/02/14,23:30,0.513,0.777,0.488,0.974,0.702,0.314,0.559,0.523,��,1.2,��
2024/02/14,23:40,0.514,0.777,0.489,0.976,0.702,0.314,0.560,0.524,�k�k��,0.8,��
2024/02/14,23:50,0.512,0.779,0.490,0.976,0.702,0.314,0.558,0.522,���쓌,1.5,��
